owner,sensor,date,latitude,longitude,vertical_datum,wind_speed,wind_to_direction,wind_speed_of_gust,qcFlag 
TABS,ioos:station:wmo:42045:1,2007-12-03T19:00:00Z,26.2168,-96.4998,4.0,99.0,-9999.0,8.0,'11144222,99999999,11111222' 
TABS,ioos:station:wmo:42045:1,2007-12-03T19:30:00Z,26.2168,-96.4998,4.0,99.0,-9999.0,7.0,'11144222,99999999,11111222' 
TABS,ioos:station:wmo:42045:1,2007-12-03T20:00:00Z,26.2168,-96.4998,4.0,99.0,-9999.0,7.0,'11144222,99999999,11111222' 
TABS,ioos:station:wmo:42045:1,2007-12-03T20:30:00Z,26.2168,-96.4998,4.0,99.0,-9999.0,7.0,'11144222,99999999,11111222' 
TABS,ioos:station:wmo:42045:1,2007-12-03T21:00:00Z,26.2168,-96.4998,4.0,99.0,-9999.0,7.0,'11144222,99999999,11111222' 
TABS,ioos:station:wmo:42045:1,2007-12-03T21:30:00Z,26.2168,-96.4998,4.0,99.0,-9999.0,6.0,'11144222,99999999,11111222' 
TABS,ioos:station:wmo:42045:1,2007-12-03T22:00:00Z,26.2168,-96.4998,4.0,99.0,-9999.0,6.0,'11144222,99999999,11111222' 
TABS,ioos:station:wmo:42045:1,2007-12-03T22:30:00Z,26.2168,-96.4998,4.0,99.0,-9999.0,6.0,'11144222,99999999,11111222' 
TABS,ioos:station:wmo:42045:1,2007-12-03T23:00:00Z,26.2168,-96.4998,4.0,99.0,-9999.0,7.0,'11144222,99999999,11111222' 
TABS,ioos:station:wmo:42045:1,2007-12-03T23:30:00Z,26.2168,-96.4998,4.0,99.0,-9999.0,6.0,'11144222,99999999,11111222' 
TABS,ioos:station:wmo:42045:1,2007-12-04T00:00:00Z,26.2168,-96.4998,4.0,99.0,-9999.0,6.0,'11144222,99999999,11111222' 
TABS,ioos:station:wmo:42045:1,2007-12-04T00:30:00Z,26.2168,-96.4998,4.0,99.0,-9999.0,7.0,'11144222,99999999,11111222' 
TABS,ioos:station:wmo:42045:1,2007-12-04T01:00:00Z,26.2168,-96.4998,4.0,99.0,-9999.0,7.0,'11144222,99999999,11111222' 
TABS,ioos:station:wmo:42045:1,2007-12-04T01:30:00Z,26.2168,-96.4998,4.0,99.0,-9999.0,7.0,'11144222,99999999,11111222' 
TABS,ioos:station:wmo:42045:1,2007-12-04T02:00:00Z,26.2168,-96.4998,4.0,99.0,-9999.0,7.0,'11144222,99999999,11111222' 
TABS,ioos:station:wmo:42045:1,2007-12-04T02:30:00Z,26.2168,-96.4998,4.0,99.0,-9999.0,7.0,'11144222,99999999,11111222' 
TABS,ioos:station:wmo:42045:1,2007-12-04T03:00:00Z,26.2168,-96.4998,4.0,99.0,-9999.0,8.0,'11144222,99999999,11111222' 
TABS,ioos:station:wmo:42045:1,2007-12-04T03:30:00Z,26.2168,-96.4998,4.0,99.0,-9999.0,8.0,'11144222,99999999,11111222' 
TABS,ioos:station:wmo:42045:1,2007-12-04T04:00:00Z,26.2168,-96.4998,4.0,99.0,-9999.0,8.0,'11144222,99999999,11111222' 
TABS,ioos:station:wmo:42045:1,2007-12-04T04:30:00Z,26.2168,-96.4998,4.0,99.0,-9999.0,9.0,'11144222,99999999,11111222' 
TABS,ioos:station:wmo:42045:1,2007-12-04T05:00:00Z,26.2168,-96.4998,4.0,99.0,-9999.0,11.0,'11144222,99999999,11111222' 
TABS,ioos:station:wmo:42045:1,2007-12-04T05:30:00Z,26.2168,-96.4998,4.0,99.0,-9999.0,12.0,'11144222,99999999,11111222' 
TABS,ioos:station:wmo:42045:1,2007-12-04T06:00:00Z,26.2168,-96.4998,4.0,99.0,-9999.0,10.0,'11144222,99999999,11111222' 
TABS,ioos:station:wmo:42045:1,2007-12-04T06:30:00Z,26.2168,-96.4998,4.0,99.0,-9999.0,8.0,'11144222,99999999,11111222' 
TABS,ioos:station:wmo:42045:1,2007-12-04T07:00:00Z,26.2168,-96.4998,4.0,99.0,-9999.0,8.0,'11144222,99999999,11111222' 
TABS,ioos:station:wmo:42045:1,2007-12-04T07:30:00Z,26.2168,-96.4998,4.0,99.0,-9999.0,6.0,'11144222,99999999,11111222' 
TABS,ioos:station:wmo:42045:1,2007-12-04T08:00:00Z,26.2168,-96.4998,4.0,99.0,-9999.0,5.0,'11144222,99999999,11111222' 
TABS,ioos:station:wmo:42045:1,2007-12-04T08:30:00Z,26.2168,-96.4998,4.0,99.0,-9999.0,5.0,'11144222,99999999,11111222' 
TABS,ioos:station:wmo:42045:1,2007-12-04T09:00:00Z,26.2168,-96.4998,4.0,99.0,-9999.0,5.0,'11144222,99999999,11111222' 
TABS,ioos:station:wmo:42045:1,2007-12-04T09:30:00Z,26.2168,-96.4998,4.0,99.0,-9999.0,6.0,'11144222,99999999,11111222' 
TABS,ioos:station:wmo:42045:1,2007-12-04T10:00:00Z,26.2168,-96.4998,4.0,99.0,-9999.0,6.0,'11144222,99999999,11111222' 
TABS,ioos:station:wmo:42045:1,2007-12-04T10:30:00Z,26.2168,-96.4998,4.0,99.0,-9999.0,8.0,'11144222,99999999,11111222' 
TABS,ioos:station:wmo:42045:1,2007-12-04T11:00:00Z,26.2168,-96.4998,4.0,99.0,-9999.0,7.0,'11144222,99999999,11111222' 
TABS,ioos:station:wmo:42045:1,2007-12-04T11:30:00Z,26.2168,-96.4998,4.0,99.0,-9999.0,7.0,'11144222,99999999,11111222' 
TABS,ioos:station:wmo:42045:1,2007-12-04T12:00:00Z,26.2168,-96.4998,4.0,99.0,-9999.0,6.0,'11144222,99999999,11111222' 
TABS,ioos:station:wmo:42045:1,2007-12-04T12:30:00Z,26.2168,-96.4998,4.0,99.0,-9999.0,5.0,'11144222,99999999,11111222' 
TABS,ioos:station:wmo:42045:1,2007-12-04T13:00:00Z,26.2168,-96.4998,4.0,99.0,-9999.0,4.0,'11144222,99999999,11111222' 
TABS,ioos:station:wmo:42045:1,2007-12-04T13:30:00Z,26.2168,-96.4998,4.0,99.0,-9999.0,3.0,'11144222,99999999,11111222' 
TABS,ioos:station:wmo:42045:1,2007-12-04T14:00:00Z,26.2168,-96.4998,4.0,99.0,-9999.0,3.0,'11144222,99999999,11111222' 
TABS,ioos:station:wmo:42045:1,2007-12-04T14:30:00Z,26.2168,-96.4998,4.0,99.0,-9999.0,3.0,'11144222,99999999,11111222' 
TABS,ioos:station:wmo:42045:1,2007-12-04T15:00:00Z,26.2168,-96.4998,4.0,99.0,-9999.0,3.0,'11144222,99999999,11111222' 
TABS,ioos:station:wmo:42045:1,2007-12-04T15:30:00Z,26.2168,-96.4998,4.0,99.0,-9999.0,4.0,'11144222,99999999,11111222' 
TABS,ioos:station:wmo:42045:1,2007-12-04T16:00:00Z,26.2168,-96.4998,4.0,99.0,-9999.0,6.0,'11144222,99999999,11111222' 
TABS,ioos:station:wmo:42045:1,2007-12-04T16:30:00Z,26.2168,-96.4998,4.0,99.0,-9999.0,6.0,'11144222,99999999,11111222' 
TABS,ioos:station:wmo:42045:1,2007-12-04T17:00:00Z,26.2168,-96.4998,4.0,99.0,-9999.0,6.0,'11144222,99999999,11111222' 
TABS,ioos:station:wmo:42045:1,2007-12-04T17:30:00Z,26.2168,-96.4998,4.0,99.0,-9999.0,6.0,'11144222,99999999,11111222' 
TABS,ioos:station:wmo:42045:1,2007-12-04T18:00:00Z,26.2168,-96.4998,4.0,99.0,-9999.0,7.0,'11144222,99999999,11111222' 
TABS,ioos:station:wmo:42045:1,2007-12-04T18:30:00Z,26.2168,-96.4998,4.0,99.0,-9999.0,8.0,'11144222,99999999,11111222' 
TABS,ioos:station:wmo:42045:1,2007-12-04T19:00:00Z,26.2168,-96.4998,4.0,99.0,-9999.0,9.0,'11144222,99999999,11111222' 
TABS,ioos:station:wmo:42045:1,2007-12-04T19:30:00Z,26.2168,-96.4998,4.0,99.0,-9999.0,8.0,'11144222,99999999,11111222' 
TABS,ioos:station:wmo:42045:1,2007-12-04T20:00:00Z,26.2168,-96.4998,4.0,99.0,-9999.0,7.0,'11144222,99999999,11111222' 
TABS,ioos:station:wmo:42045:1,2007-12-04T20:30:00Z,26.2168,-96.4998,4.0,99.0,-9999.0,6.0,'11144222,99999999,11111222' 
TABS,ioos:station:wmo:42045:1,2007-12-04T21:00:00Z,26.2168,-96.4998,4.0,99.0,-9999.0,4.0,'11144222,99999999,11111222' 
TABS,ioos:station:wmo:42045:1,2007-12-04T21:30:00Z,26.2168,-96.4998,4.0,99.0,-9999.0,5.0,'11144222,99999999,11111222' 
TABS,ioos:station:wmo:42045:1,2007-12-04T22:00:00Z,26.2168,-96.4998,4.0,99.0,-9999.0,5.0,'11144222,99999999,11111222' 
TABS,ioos:station:wmo:42045:1,2007-12-04T22:30:00Z,26.2168,-96.4998,4.0,99.0,-9999.0,6.0,'11144222,99999999,11111222' 
TABS,ioos:station:wmo:42045:1,2007-12-04T23:00:00Z,26.2168,-96.4998,4.0,99.0,-9999.0,7.0,'11144222,99999999,11111222' 
TABS,ioos:station:wmo:42045:1,2007-12-04T23:30:00Z,26.2168,-96.4998,4.0,99.0,-9999.0,5.0,'11144222,99999999,11111222' 
TABS,ioos:station:wmo:42045:1,2007-12-06T00:00:00Z,26.2168,-96.4998,4.0,0.692603783,17.64987249,1.57,'11111222,11111222,11111222' 
TABS,ioos:station:wmo:42045:1,2007-12-06T00:30:00Z,26.2168,-96.4998,4.0,0.278926514,14.53421063,1.2,'11111222,11111222,11111222' 
TABS,ioos:station:wmo:42045:1,2007-12-06T01:00:00Z,26.2168,-96.4998,4.0,0.758946638,18.43469526,1.55,'11111222,11111222,11111222' 
TABS,ioos:station:wmo:42045:1,2007-12-06T01:30:00Z,26.2168,-96.4998,4.0,0.213775583,10.78406219,1.14,'11111222,11111222,11111222' 
TABS,ioos:station:wmo:42045:1,2007-12-06T02:00:00Z,26.2168,-96.4998,4.0,0.177200451,16.38929155,1.12,'11111222,11111222,11111222' 
TABS,ioos:station:wmo:42045:1,2007-12-06T02:30:00Z,26.2168,-96.4998,4.0,0.202484567,200.2250226,1.25,'11111222,11111222,11111222' 
TABS,ioos:station:wmo:42045:1,2007-12-06T03:00:00Z,26.2168,-96.4998,4.0,0.26925824,201.801569,1.41,'11111222,11111222,11111222' 
TABS,ioos:station:wmo:42045:1,2007-12-06T03:30:00Z,26.2168,-96.4998,4.0,0.170293864,220.2364747,1.47,'11111222,11111222,11111222' 
TABS,ioos:station:wmo:42045:1,2007-12-06T04:00:00Z,26.2168,-96.4998,4.0,0.244131112,214.9921488,1.62,'11111222,11111222,11111222' 
TABS,ioos:station:wmo:42045:1,2007-12-06T04:30:00Z,26.2168,-96.4998,4.0,0.041231056,255.9637894,1.7,'11111222,11111222,11111222' 
TABS,ioos:station:wmo:42045:1,2007-12-06T05:00:00Z,26.2168,-96.4998,4.0,0.20808652,215.2177211,1.57,'11111222,11111222,11111222' 
TABS,ioos:station:wmo:42045:1,2007-12-06T05:30:00Z,26.2168,-96.4998,4.0,0.219544984,210.068723,1.31,'11111222,11111222,11111222' 
TABS,ioos:station:wmo:42045:1,2007-12-06T06:00:00Z,26.2168,-96.4998,4.0,0.128062485,231.3402821,1.5,'11111222,11111222,11111222' 
TABS,ioos:station:wmo:42045:1,2007-12-06T06:30:00Z,26.2168,-96.4998,4.0,0.078102497,219.8056885,1.45,'11111222,11111222,11111222' 
TABS,ioos:station:wmo:42045:1,2007-12-06T07:00:00Z,26.2168,-96.4998,4.0,0.114017543,195.2552935,1.29,'11111222,11111222,11111222' 
TABS,ioos:station:wmo:42045:1,2007-12-06T07:30:00Z,26.2168,-96.4998,4.0,0.384707681,207.8974163,1.54,'11111222,11111222,11111222' 
TABS,ioos:station:wmo:42045:1,2007-12-06T08:00:00Z,26.2168,-96.4998,4.0,0.412310563,202.8338112,1.35,'11111222,11111222,11111222' 
TABS,ioos:station:wmo:42045:1,2007-12-06T08:30:00Z,26.2168,-96.4998,4.0,0.226715681,228.5764312,1.78,'11111222,11111222,11111222' 
TABS,ioos:station:wmo:42045:1,2007-12-06T09:00:00Z,26.2168,-96.4998,4.0,0.128062485,321.3400717,1.54,'11111222,11111222,11111222' 
TABS,ioos:station:wmo:42045:1,2007-12-06T09:30:00Z,26.2168,-96.4998,4.0,0.162788206,259.3803696,0.74,'11111222,11111222,11111222' 
TABS,ioos:station:wmo:42045:1,2007-12-06T10:00:00Z,26.2168,-96.4998,4.0,0.100498756,354.2892098,0.92,'11111222,11111222,11111222' 
TABS,ioos:station:wmo:42045:1,2007-12-06T10:30:00Z,26.2168,-96.4998,4.0,1.883215336,183.3487974,3.63,'11111222,11111222,11111222' 
TABS,ioos:station:wmo:42045:1,2007-12-06T11:00:00Z,26.2168,-96.4998,4.0,2.696015579,146.9586015,3.18,'11111222,11111222,11111222' 
TABS,ioos:station:wmo:42045:1,2007-12-06T11:30:00Z,26.2168,-96.4998,4.0,2.627318024,129.7500552,3.28,'11111222,11111222,11111222' 
TABS,ioos:station:wmo:42045:1,2007-12-06T12:00:00Z,26.2168,-96.4998,4.0,2.873464808,114.2462929,3.87,'11111222,11111222,11111222' 
TABS,ioos:station:wmo:42045:1,2007-12-06T12:30:00Z,26.2168,-96.4998,4.0,2.707120241,114.6720286,3.35,'11111222,11111222,11111222' 
TABS,ioos:station:wmo:42045:1,2007-12-06T13:00:00Z,26.2168,-96.4998,4.0,3.441583938,103.9558767,4.58,'11111222,11111222,11111222' 
TABS,ioos:station:wmo:42045:1,2007-12-06T13:30:00Z,26.2168,-96.4998,4.0,3.40618555,122.8972796,4.35,'11111222,11111222,11111222' 
TABS,ioos:station:wmo:42045:1,2007-12-06T14:00:00Z,26.2168,-96.4998,4.0,3.642430507,127.7511503,5.0,'11111222,11111222,11111222' 
TABS,ioos:station:wmo:42045:1,2007-12-06T14:30:00Z,26.2168,-96.4998,4.0,3.863392292,137.0981194,5.13,'11111222,11111222,11111222' 
TABS,ioos:station:wmo:42045:1,2007-12-06T15:00:00Z,26.2168,-96.4998,4.0,4.009114615,140.8717814,5.24,'11111222,11111222,11111222' 
TABS,ioos:station:wmo:42045:1,2007-12-06T15:30:00Z,26.2168,-96.4998,4.0,4.595051686,137.9111467,6.12,'11111222,11111222,11111222' 
TABS,ioos:station:wmo:42045:1,2007-12-06T16:00:00Z,26.2168,-96.4998,4.0,5.094006282,143.2203803,6.74,'11111222,11111222,11111222' 
TABS,ioos:station:wmo:42045:1,2007-12-06T16:30:00Z,26.2168,-96.4998,4.0,5.599151721,139.8540809,7.32,'11111222,11111222,11111222' 
TABS,ioos:station:wmo:42045:1,2007-12-06T17:00:00Z,26.2168,-96.4998,4.0,5.900381344,138.3667685,7.42,'11111222,11111222,11111222' 
TABS,ioos:station:wmo:42045:1,2007-12-06T17:30:00Z,26.2168,-96.4998,4.0,5.690834737,137.5640799,7.47,'11111222,11111222,11111222' 
TABS,ioos:station:wmo:42045:1,2007-12-06T18:00:00Z,26.2168,-96.4998,4.0,5.682297071,137.2111294,7.35,'11111222,11111222,11111222' 
TABS,ioos:station:wmo:42045:1,2007-12-06T18:30:00Z,26.2168,-96.4998,4.0,5.643837347,138.0885546,6.8,'11111222,11111222,11111222' 
TABS,ioos:station:wmo:42045:1,2007-12-06T19:00:00Z,26.2168,-96.4998,4.0,5.96976549,145.1655261,8.15,'11111222,11111222,11111222' 
TABS,ioos:station:wmo:42045:1,2007-12-06T19:30:00Z,26.2168,-96.4998,4.0,6.117336022,147.6871308,7.67,'11111222,11111222,11111222' 
TABS,ioos:station:wmo:42045:1,2007-12-06T20:00:00Z,26.2168,-96.4998,4.0,5.687187354,151.5425843,8.21,'11111222,11111222,11111222' 
TABS,ioos:station:wmo:42045:1,2007-12-06T20:30:00Z,26.2168,-96.4998,4.0,6.585696622,149.4244597,8.47,'11111222,11111222,11111222' 
TABS,ioos:station:wmo:42045:1,2007-12-06T21:00:00Z,26.2168,-96.4998,4.0,5.547657163,151.8184349,7.19,'11111222,11111222,11111222' 
TABS,ioos:station:wmo:42045:1,2007-12-06T21:30:00Z,26.2168,-96.4998,4.0,5.843466437,149.793249,8.02,'11111222,11111222,11111222' 
TABS,ioos:station:wmo:42045:1,2007-12-06T22:00:00Z,26.2168,-96.4998,4.0,6.30717845,150.1427231,7.98,'11111222,11111222,11111222' 
TABS,ioos:station:wmo:42045:1,2007-12-06T22:30:00Z,26.2168,-96.4998,4.0,6.493542947,153.4746812,8.64,'11111222,11111222,11111222' 
TABS,ioos:station:wmo:42045:1,2007-12-06T23:00:00Z,26.2168,-96.4998,4.0,5.798387707,149.1890432,7.75,'11111222,11111222,11111222' 
TABS,ioos:station:wmo:42045:1,2007-12-06T23:30:00Z,26.2168,-96.4998,4.0,6.268277275,151.7180932,8.03,'11111222,11111222,11111222' 
TABS,ioos:station:wmo:42045:1,2007-12-07T00:00:00Z,26.2168,-96.4998,4.0,6.305695838,151.2810424,7.87,'11111222,11111222,11111222' 
TABS,ioos:station:wmo:42045:1,2007-12-07T00:30:00Z,26.2168,-96.4998,4.0,6.142711128,147.8367092,8.42,'11111222,11111222,11111222' 
TABS,ioos:station:wmo:42045:1,2007-12-07T01:00:00Z,26.2168,-96.4998,4.0,6.141376067,144.3433178,7.82,'11111222,11111222,11111222' 
TABS,ioos:station:wmo:42045:1,2007-12-07T01:30:00Z,26.2168,-96.4998,4.0,6.930259735,143.6264528,9.19,'11111222,11111222,11111222' 
TABS,ioos:station:wmo:42045:1,2007-12-07T02:00:00Z,26.2168,-96.4998,4.0,7.080826223,146.5795295,9.15,'11111222,11111222,11111222' 
TABS,ioos:station:wmo:42045:1,2007-12-07T02:30:00Z,26.2168,-96.4998,4.0,6.307535176,150.8750915,8.04,'11111222,11111222,11111222' 
TABS,ioos:station:wmo:42045:1,2007-12-07T03:00:00Z,26.2168,-96.4998,4.0,7.381307472,150.2746545,9.95,'11111222,11111222,11111222' 
TABS,ioos:station:wmo:42045:1,2007-12-07T03:30:00Z,26.2168,-96.4998,4.0,7.370549505,147.4098526,9.37,'11111222,11111222,11111222' 
TABS,ioos:station:wmo:42045:1,2007-12-07T04:00:00Z,26.2168,-96.4998,4.0,7.058895098,149.147888,9.4,'11111222,11111222,11111222' 
TABS,ioos:station:wmo:42045:1,2007-12-07T04:30:00Z,26.2168,-96.4998,4.0,7.011889902,148.0555324,9.33,'11111222,11111222,11111222' 
TABS,ioos:station:wmo:42045:1,2007-12-07T05:00:00Z,26.2168,-96.4998,4.0,6.944155816,149.4468858,9.38,'11111222,11111222,11111222' 
TABS,ioos:station:wmo:42045:1,2007-12-07T05:30:00Z,26.2168,-96.4998,4.0,7.298794421,152.9437267,9.28,'11111222,11111222,11111222' 
TABS,ioos:station:wmo:42045:1,2007-12-07T06:00:00Z,26.2168,-96.4998,4.0,6.339629327,150.7262191,7.94,'11111222,11111222,11111222' 
TABS,ioos:station:wmo:42045:1,2007-12-07T06:30:00Z,26.2168,-96.4998,4.0,6.312408415,150.7958014,7.98,'11111222,11111222,11111222' 
TABS,ioos:station:wmo:42045:1,2007-12-07T07:00:00Z,26.2168,-96.4998,4.0,5.926255141,152.5704471,7.74,'11111222,11111222,11111222' 
TABS,ioos:station:wmo:42045:1,2007-12-07T07:30:00Z,26.2168,-96.4998,4.0,6.305751343,153.6383966,8.44,'11111222,11111222,11111222' 
TABS,ioos:station:wmo:42045:1,2007-12-07T08:00:00Z,26.2168,-96.4998,4.0,6.189668812,153.931992,8.23,'11111222,11111222,11111222' 
TABS,ioos:station:wmo:42045:1,2007-12-07T08:30:00Z,26.2168,-96.4998,4.0,5.934854674,152.8307683,7.55,'11111222,11111222,11111222' 
TABS,ioos:station:wmo:42045:1,2007-12-07T09:00:00Z,26.2168,-96.4998,4.0,5.453530966,151.8845285,7.11,'11111222,11111222,11111222' 
TABS,ioos:station:wmo:42045:1,2007-12-07T09:30:00Z,26.2168,-96.4998,4.0,5.388070155,150.2949675,7.21,'11111222,11111222,11111222' 
TABS,ioos:station:wmo:42045:1,2007-12-07T10:00:00Z,26.2168,-96.4998,4.0,5.169806573,153.5839122,6.64,'11111222,11111222,11111222' 
TABS,ioos:station:wmo:42045:1,2007-12-07T10:30:00Z,26.2168,-96.4998,4.0,5.03433213,155.4715421,6.44,'11111222,11111222,11111222' 
TABS,ioos:station:wmo:42045:1,2007-12-07T11:00:00Z,26.2168,-96.4998,4.0,5.143004958,153.1861115,6.58,'11111222,11111222,11111222' 
TABS,ioos:station:wmo:42045:1,2007-12-07T11:30:00Z,26.2168,-96.4998,4.0,4.949919191,155.6616884,7.09,'11111222,11111222,11111222' 
TABS,ioos:station:wmo:42045:1,2007-12-07T12:00:00Z,26.2168,-96.4998,4.0,4.763034747,152.8972499,5.98,'11111222,11111222,11111222' 
TABS,ioos:station:wmo:42045:1,2007-12-07T12:30:00Z,26.2168,-96.4998,4.0,4.75895997,154.3505815,6.26,'11111222,11111222,11111222' 
TABS,ioos:station:wmo:42045:1,2007-12-07T13:00:00Z,26.2168,-96.4998,4.0,4.508480897,152.5258431,5.74,'11111222,11111222,11111222' 
TABS,ioos:station:wmo:42045:1,2007-12-07T13:30:00Z,26.2168,-96.4998,4.0,4.629135988,149.7794812,6.12,'11111222,11111222,11111222' 
TABS,ioos:station:wmo:42045:1,2007-12-07T14:00:00Z,26.2168,-96.4998,4.0,4.909877799,151.1383592,6.09,'11111222,11111222,11111222' 
TABS,ioos:station:wmo:42045:1,2007-12-07T14:30:00Z,26.2168,-96.4998,4.0,5.129922027,152.7359196,6.42,'11111222,11111222,11111222' 
TABS,ioos:station:wmo:42045:1,2007-12-07T15:00:00Z,26.2168,-96.4998,4.0,5.71317775,150.6534515,7.04,'11111222,11111222,11111222' 
TABS,ioos:station:wmo:42045:1,2007-12-07T15:30:00Z,26.2168,-96.4998,4.0,5.441360124,151.4570463,6.97,'11111222,11111222,11111222' 
TABS,ioos:station:wmo:42045:1,2007-12-07T16:00:00Z,26.2168,-96.4998,4.0,5.322264556,152.7130456,6.67,'11111222,11111222,11111222' 
TABS,ioos:station:wmo:42045:1,2007-12-07T16:30:00Z,26.2168,-96.4998,4.0,5.595507126,152.427728,6.94,'11111222,11111222,11111222' 
TABS,ioos:station:wmo:42045:1,2007-12-07T17:00:00Z,26.2168,-96.4998,4.0,5.292126227,154.8394826,6.62,'11111222,11111222,11111222' 
TABS,ioos:station:wmo:42045:1,2007-12-07T17:30:00Z,26.2168,-96.4998,4.0,5.304790288,156.9151308,6.55,'11111222,11111222,11111222' 
TABS,ioos:station:wmo:42045:1,2007-12-07T18:00:00Z,26.2168,-96.4998,4.0,4.859681059,156.6004204,6.01,'11111222,11111222,11111222' 
TABS,ioos:station:wmo:42045:1,2007-12-07T18:30:00Z,26.2168,-96.4998,4.0,5.450587124,156.5394218,7.05,'11111222,11111222,11111222' 
TABS,ioos:station:wmo:42045:1,2007-12-07T19:00:00Z,26.2168,-96.4998,4.0,4.411915684,156.6311519,5.47,'11111222,11111222,11111222' 
TABS,ioos:station:wmo:42045:1,2007-12-07T19:30:00Z,26.2168,-96.4998,4.0,4.342556851,153.0221806,5.4,'11111222,11111222,11111222' 
TABS,ioos:station:wmo:42045:1,2007-12-07T20:00:00Z,26.2168,-96.4998,4.0,5.126099882,154.5849797,6.31,'11111222,11111222,11111222' 
TABS,ioos:station:wmo:42045:1,2007-12-07T20:30:00Z,26.2168,-96.4998,4.0,5.289725891,151.3033729,6.62,'11111222,11111222,11111222' 
TABS,ioos:station:wmo:42045:1,2007-12-07T21:00:00Z,26.2168,-96.4998,4.0,5.120976469,149.2284065,6.48,'11111222,11111222,11111222' 
TABS,ioos:station:wmo:42045:1,2007-12-07T21:30:00Z,26.2168,-96.4998,4.0,4.486981168,148.1167211,5.41,'11111222,11111222,11111222' 
TABS,ioos:station:wmo:42045:1,2007-12-07T22:00:00Z,26.2168,-96.4998,4.0,4.487538301,146.451867,5.61,'11111222,11111222,11111222' 
TABS,ioos:station:wmo:42045:1,2007-12-07T22:30:00Z,26.2168,-96.4998,4.0,4.950252519,143.7091232,6.13,'11111222,11111222,11111222' 
TABS,ioos:station:wmo:42045:1,2007-12-07T23:00:00Z,26.2168,-96.4998,4.0,5.164348943,145.9717444,6.74,'11111222,11111222,11111222' 
TABS,ioos:station:wmo:42045:1,2007-12-07T23:30:00Z,26.2168,-96.4998,4.0,5.135221514,141.8806728,6.36,'11111222,11111222,11111222' 
TABS,ioos:station:wmo:42045:1,2007-12-08T00:00:00Z,26.2168,-96.4998,4.0,5.249761899,144.6148625,6.59,'11111222,11111222,11111222' 
TABS,ioos:station:wmo:42045:1,2007-12-08T00:30:00Z,26.2168,-96.4998,4.0,5.833532378,151.9855643,7.11,'11111222,11111222,11111222' 
TABS,ioos:station:wmo:42045:1,2007-12-08T01:00:00Z,26.2168,-96.4998,4.0,5.710639194,146.2823948,7.05,'11111222,11111222,11111222' 
TABS,ioos:station:wmo:42045:1,2007-12-08T01:30:00Z,26.2168,-96.4998,4.0,5.853477599,147.5591233,7.43,'11111222,11111222,11111222' 
TABS,ioos:station:wmo:42045:1,2007-12-08T02:00:00Z,26.2168,-96.4998,4.0,5.806108852,150.035079,6.96,'11111222,11111222,11111222' 
TABS,ioos:station:wmo:42045:1,2007-12-08T02:30:00Z,26.2168,-96.4998,4.0,6.249423973,152.0410428,7.78,'11111222,11111222,11111222' 
TABS,ioos:station:wmo:42045:1,2007-12-08T03:00:00Z,26.2168,-96.4998,4.0,6.394098842,150.5888323,7.82,'11111222,11111222,11111222' 
TABS,ioos:station:wmo:42045:1,2007-12-08T03:30:00Z,26.2168,-96.4998,4.0,6.251151894,149.2094345,7.89,'11111222,11111222,11111222' 
TABS,ioos:station:wmo:42045:1,2007-12-08T04:00:00Z,26.2168,-96.4998,4.0,6.349503918,149.8412745,8.11,'11111222,11111222,11111222' 
TABS,ioos:station:wmo:42045:1,2007-12-08T04:30:00Z,26.2168,-96.4998,4.0,6.838669461,152.573416,8.45,'11111222,11111222,11111222' 
TABS,ioos:station:wmo:42045:1,2007-12-08T05:00:00Z,26.2168,-96.4998,4.0,6.71726879,153.0919094,8.48,'11111222,11111222,11111222' 
TABS,ioos:station:wmo:42045:1,2007-12-08T05:30:00Z,26.2168,-96.4998,4.0,6.205562021,155.1283992,8.2,'11111222,11111222,11111222' 
TABS,ioos:station:wmo:42045:1,2007-12-08T06:00:00Z,26.2168,-96.4998,4.0,6.314633798,155.5863499,8.06,'11111222,11111222,11111222' 
TABS,ioos:station:wmo:42045:1,2007-12-08T06:30:00Z,26.2168,-96.4998,4.0,6.019252445,157.2266341,7.89,'11111222,11111222,11111222' 
TABS,ioos:station:wmo:42045:1,2007-12-08T07:00:00Z,26.2168,-96.4998,4.0,5.739729959,162.0388117,7.07,'11111222,11111222,11111222' 
TABS,ioos:station:wmo:42045:1,2007-12-08T07:30:00Z,26.2168,-96.4998,4.0,5.877703633,157.492875,7.45,'11111222,11111222,11111222' 
TABS,ioos:station:wmo:42045:1,2007-12-08T08:00:00Z,26.2168,-96.4998,4.0,6.345210792,158.1653163,9.77,'11111222,11111222,11111222' 
TABS,ioos:station:wmo:42045:1,2007-12-08T08:30:00Z,26.2168,-96.4998,4.0,6.373578273,160.285962,7.98,'11111222,11111222,11111222' 
TABS,ioos:station:wmo:42045:1,2007-12-08T09:00:00Z,26.2168,-96.4998,4.0,6.122458656,159.6413683,8.22,'11111222,11111222,11111222' 
TABS,ioos:station:wmo:42045:1,2007-12-08T09:30:00Z,26.2168,-96.4998,4.0,6.183243485,162.5909484,7.46,'11111222,11111222,11111222' 
TABS,ioos:station:wmo:42045:1,2007-12-08T10:00:00Z,26.2168,-96.4998,4.0,5.885388687,157.3130006,7.78,'11111222,11111222,11111222' 
TABS,ioos:station:wmo:42045:1,2007-12-08T10:30:00Z,26.2168,-96.4998,4.0,6.123569221,155.9047751,7.95,'11111222,11111222,11111222' 
TABS,ioos:station:wmo:42045:1,2007-12-08T11:00:00Z,26.2168,-96.4998,4.0,6.575408733,152.2660848,8.3,'11111222,11111222,11111222' 
TABS,ioos:station:wmo:42045:1,2007-12-08T11:30:00Z,26.2168,-96.4998,4.0,6.521847898,152.2171848,8.51,'11111222,11111222,11111222' 
TABS,ioos:station:wmo:42045:1,2007-12-08T12:00:00Z,26.2168,-96.4998,4.0,6.640880966,151.3898177,8.29,'11111222,11111222,11111222' 
TABS,ioos:station:wmo:42045:1,2007-12-08T12:30:00Z,26.2168,-96.4998,4.0,6.758942225,148.6149217,8.71,'11111222,11111222,11111222' 
TABS,ioos:station:wmo:42045:1,2007-12-08T13:00:00Z,26.2168,-96.4998,4.0,6.060338274,150.2202192,7.54,'11111222,11111222,11111222' 
TABS,ioos:station:wmo:42045:1,2007-12-08T13:30:00Z,26.2168,-96.4998,4.0,6.199491915,147.1817661,8.47,'11111222,11111222,11111222' 
TABS,ioos:station:wmo:42045:1,2007-12-08T14:00:00Z,26.2168,-96.4998,4.0,6.511812344,149.1421542,8.23,'11111222,11111222,11111222' 
TABS,ioos:station:wmo:42045:1,2007-12-08T14:30:00Z,26.2168,-96.4998,4.0,7.120849668,150.3751595,8.94,'11111222,11111222,11111222' 
TABS,ioos:station:wmo:42045:1,2007-12-08T15:00:00Z,26.2168,-96.4998,4.0,7.237306129,148.7921388,9.12,'11111222,11111222,11111222' 
TABS,ioos:station:wmo:42045:1,2007-12-08T15:30:00Z,26.2168,-96.4998,4.0,7.534666549,147.5757518,9.45,'11111222,11111222,11111222' 
TABS,ioos:station:wmo:42045:1,2007-12-08T16:00:00Z,26.2168,-96.4998,4.0,7.374449132,147.7972465,9.73,'11111222,11111222,11111222' 